This is the latest recevied weather packets stored in our database for station/object SR6WXJG. If no packets are shown the sender has not sent any weather packets the latest 10 day(s).
| Time | Temp. | Humidity | Pressure | Rain* | Wind** | Luminosity | Snow |
|---|---|---|---|---|---|---|---|
| 1777573983 | 10.56° C | 48% | 1029 hPa | 0 mm | - | - | - |
| 1777573083 | 11.67° C | 41% | 1029 hPa | 0 mm | - | - | - |
| 1777572183 | 11.67° C | 46% | 1029 hPa | 0 mm | - | - | - |
| 1777571283 | 12.22° C | 46% | 1029 hPa | 0 mm | - | - | - |
| 1777570382 | 12.22° C | 45% | 1029 hPa | 0 mm | - | - | - |
| 1777569482 | 13.33° C | 37% | 1028 hPa | 0 mm | - | - | - |
| 1777568582 | 13.33° C | 43% | 1029 hPa | 0 mm | - | - | - |
| 1777567681 | 13.33° C | 43% | 1029 hPa | 0 mm | - | - | - |
| 1777566781 | 13.89° C | 43% | 1029 hPa | 0 mm | - | - | - |
| 1777565880 | 14.44° C | 33% | 1029 hPa | 0 mm | - | - | - |
| 1777564980 | 14.44° C | 37% | 1029 hPa | 0 mm | - | - | - |
| 1777564080 | 14.44° C | 37% | 1029 hPa | 0 mm | - | - | - |
| 1777563179 | 14.44° C | 36% | 1029 hPa | 0 mm | - | - | - |
| 1777562279 | 14.44° C | 31% | 1029 hPa | 0 mm | - | - | - |
| 1777561379 | 14.44° C | 35% | 1029 hPa | 0 mm | - | - | - |
| 1777560478 | 14.44° C | 34% | 1029 hPa | 0 mm | - | - | - |
| 1777559578 | 14.44° C | 34% | 1029 hPa | 0 mm | - | - | - |
| 1777558678 | 14.44° C | 30% | 1029 hPa | 0 mm | - | - | - |
| 1777557778 | 14.44° C | 34% | 1029 hPa | 0 mm | - | - | - |
| 1777556877 | 13.89° C | 34% | 1029 hPa | 0 mm | - | - | - |
| 1777555977 | 13.89° C | 34% | 1030 hPa | 0 mm | - | - | - |
| 1777555076 | 13.89° C | 33% | 1030 hPa | 0 mm | - | - | - |
| 1777554176 | 13.89° C | 33% | 1030 hPa | 0 mm | - | - | - |
| 1777553276 | 13.89° C | 33% | 1030 hPa | 0 mm | - | - | - |
| 1777552375 | 13.89° C | 34% | 1030 hPa | 0 mm | - | - | - |
* Rain latest hour (hover to see other rain measurements)
** Current wind speed in m/s (hover to see current wind gust speed)